Home   Weather   Bludenz   Past weeks

Flag for Austria Past Weather in Bludenz, Vorarlberg, Austria — Yesterday and Last 2 Weeks

Now
16 °F

Cold.


Feels Like: 16 °F
Forecast: 13 / 35 °F
Wind: 1 mph from South

Location: Feldkirch

Current Time: Jan 23, 2017 at 1:33:43 am

Latest Report: Jan 23, 2017 at 12:00 am


Visibility: N/A

Pressure: 30.37 "Hg (28.24 "Hg at 563m altitude)

Humidity: 93%

Dew Point: 15 °F

Location of BludenzLocation

Past Weather in Bludenz — Graph

°F

Bludenz Temperature Yesterday

Maximum temperature yesterday: 19 °F (at 1:00 pm)
Minimum temperature yesterday: 14 °F (at 7:00 am)
Average temperature yesterday: 17 °F

High & Low Weather Summary for the Past Weeks

 TemperatureHumidityPressure
High43 °F (Jan 13, 3:00 am)98% (Jan 12, 6:00 am)30.60 "Hg (Jan 12, 6:00 am)
Low6 °F (Jan 20, 6:00 am)60% (Jan 13, 5:00 am)29.47 "Hg (Jan 13, 2:00 am)
Average24 °F87%30.26 "Hg
* Reported Jan 8 12:00 am — Jan 23 12:00 am, Bludenz, Weather by CustomWeather, © 2017

Note: Actual official high and low records may vary slightly from our data, if they occured in-between our weather recording intervals... More about our weather records

Advertising

Bludenz Weather History for the Previous 24 Hours

Scroll right to see more
 ConditionsComfort  
Time TempWeatherWind HumidityBarometerVisibility
12:00 am
Mon, Jan 23
16 °FCold.1 mph93%30.37 "HgN/A
11:00 pm
Sun, Jan 22
17 °FCold.1 mph93%30.37 "HgN/A
10:00 pm17 °FCold.1 mph94%30.36 "HgN/A
9:00 pm17 °FCold.1 mph94%30.36 "HgN/A
8:00 pm18 °FCold.1 mph94%30.35 "HgN/A
7:00 pm18 °FCold.1 mph95%30.34 "HgN/A
6:00 pm18 °FCold.1 mph94%30.33 "HgN/A
5:00 pm18 °FCold.1 mph93%30.32 "HgN/A
4:00 pm19 °FCold.1 mph94%30.32 "HgN/A
3:00 pm19 °FCold.1 mph94%30.32 "HgN/A
2:00 pm19 °FCold.1 mph94%30.33 "HgN/A
1:00 pm19 °FCold.1 mph94%30.35 "HgN/A
12:00 pm18 °FCold.1 mph94%30.38 "HgN/A
11:00 am16 °FCold.1 mph94%30.40 "HgN/A
10:00 am16 °FLow clouds.1 mph97%30.40 "Hg1 mi
9:00 am16 °FCold.No wind93%30.40 "HgN/A
8:00 am15 °FCold.1 mph94%30.40 "HgN/A
7:00 am14 °FLow clouds.2 mph96%30.40 "Hg1 mi
6:00 am14 °FCold.1 mph93%30.41 "HgN/A
5:00 am16 °FCold.1 mph93%30.42 "HgN/A
4:00 am14 °FCold.2 mph93%30.43 "HgN/A
3:00 am15 °FCold.1 mph94%30.44 "HgN/A
2:00 am14 °FCold.1 mph92%30.45 "HgN/A
1:00 am15 °FCold.1 mph93%30.45 "HgN/A
Weather by CustomWeather, © 2017

See weather overviewHow to use our weather pages